Location: ????? ????
(31.2405°N, 31.5246°E)
Time: 04:58:51
(UTC+00:00)

Daily predictions for brighter satellites

Satellite Brightness Start Highest point End
(mag) Time Altitude Azimuth Time Altitude Azimuth Time Altitude Azimuth
CENTAUR R/B 3.6 01:48:26 30° N 01:48:26 30° N 01:52:11 10° NNE
DELTA 2 R/B (1) 4.1 02:00:56 45° N 02:01:35 47° NNE 02:06:59 10° E
Cosmos 1461 3.2 02:07:49 67° SE 02:08:04 69° ESE 02:12:38 10° NNE
ERS-2 3.9 02:06:00 10° SE 02:09:14 31° ENE 02:12:28 10° N
Cosmos 1331 Rocket 3.8 02:08:42 59° NNW 02:09:43 87° WSW 02:14:56 10° SSE
Nadezhda 4 Rocket 4.1 02:07:40 10° S 02:13:45 74° E 02:19:50 10° N
Cosmos 1908 4.0 02:11:57 17° N 02:14:46 52° E 02:18:35 10° SSE
Cosmos 2180 Rocket 4.4 02:12:56 10° N 02:19:12 88° W 02:25:21 10° S
Cosmos 1833 Rocket 2.6 02:21:36 39° SW 02:23:37 64° WNW 02:29:14 10° NNE
ALOS 2.4 02:19:13 10° NNE 02:23:53 74° ESE 02:28:31 10° S
Meteor 1-24 Rocket 4.4 02:23:09 10° S 02:28:30 55° E 02:34:03 10° NNE
CZ-2C R/B 3.9 02:25:53 10° N 02:27:56 22° NNW 02:27:56 22° NNW
ADEOS 3.4 02:26:27 10° N 02:31:41 83° WNW 02:36:53 10° SSW
ATLAS 3B R/B 2.5 02:26:34 17° SW 02:31:46 74° WNW 02:38:23 10° NNE
ISS -1.4 02:34:11 14° N 02:34:11 14° N 02:35:02 10° NNE
USA 290 2.6 02:33:36 16° S 02:35:58 61° ESE 02:39:09 10° NNE
Cosmos 1110 Rocket 4.3 02:36:23 39° W 02:36:39 39° W 02:41:24 10° SSW
Geosat 4.3 02:33:19 10° SSE 02:38:17 69° ENE 02:43:17 10° NNW
CZ-2C R/B 1.5 02:38:39 37° S 02:38:39 37° S 02:41:25 10° SE
Cosmos 1302 Rocket 4.0 02:34:10 10° NNW 02:39:29 88° ENE 02:44:44 10° SSE
Cosmos 2082 Rocket 2.1 02:36:23 10° SSW 02:41:59 83° WNW 02:47:37 10° NNE
Cosmos 1484 Rocket 2.7 02:41:45 10° N 02:45:30 54° WNW 02:49:10 10° SSW
Cosmos 1626 2.1 02:42:40 10° SSW 02:46:18 56° W 02:49:55 10° N
Cosmos 2228 3.7 02:43:01 10° N 02:47:19 58° E 02:51:38 10° SSE
Meteor 1-16 Rocket 4.3 02:43:03 10° NNW 02:48:02 43° W 02:53:03 10° SSW
COSMO-SKYMED 1 4.2 02:44:26 10° SE 02:48:22 35° ENE 02:52:19 10° N
ADEOS Rocket 3.1 02:43:42 10° SSW 02:48:52 39° W 02:53:59 10° NNW
Cosmos 1606 Rocket 4.3 02:44:35 10° N 02:49:00 57° E 02:53:23 10° SSE
METEOR-M 4.0 02:45:59 10° N 02:51:18 72° WNW 02:56:35 10° SSW
Meteor 2-5 Rocket 3.7 02:45:54 10° SSW 02:51:28 66° W 02:57:12 10° N
CZ-4B R/B 3.5 02:47:42 10° NNE 02:51:46 62° ESE 02:56:01 10° S
H-2A R/B 3.2 02:49:25 10° SSW 02:52:30 25° WSW 02:52:30 25° WSW
Cosmos 1656 3.7 02:51:50 10° NNW 02:57:27 61° WSW 03:03:01 10° S
Lacrosse 5 rocket 3.1 03:00:14 13° NNW 03:00:14 13° NNW 03:01:35 10° N
ATLAS CENTAUR R/B 4.4 02:57:42 10° SSE 03:00:29 18° ESE 03:03:10 10° ENE
COSMOS 2406 4.3 02:59:32 21° WNW 03:00:37 22° WNW 03:04:59 10° N
Okean 1-7 Rocket 4.0 03:01:12 10° S 03:05:43 70° E 03:10:14 10° NNE
NOSS 8 (A) 4.4 03:03:30 10° SW 03:07:26 62° WNW 03:10:35 10° NNE
Meteor 1-31 Rocket 3.3 03:05:50 10° N 03:09:27 37° WNW 03:13:04 10° SW
Cosmos 2026 Rocket 4.0 03:04:50 10° S 03:11:11 82° W 03:17:36 10° N
Cosmos 1697 Rocket 2.7 03:09:16 10° NNW 03:14:56 85° WSW 03:20:36 10° SSE
Meteor PRIRODA 3.5 03:11:56 10° N 03:15:35 72° WNW 03:19:13 10° SSW
Cosmos 2195 Rocket 4.5 03:09:35 10° SSW 03:15:44 62° W 03:21:52 10° N
Cosmos 2058 Rocket 3.8 03:14:20 10° N 03:18:46 58° E 03:23:08 10° SSE
Cosmos 220 Rocket 4.1 03:15:12 10° NNW 03:19:39 88° E 03:24:02 10° SSE
Cosmos 1992 Rocket 4.1 03:15:16 10° NNW 03:20:30 81° ENE 03:25:42 10° SSE
Cosmos 1892 Rocket 3.8 03:18:42 10° SSW 03:22:50 46° W 03:27:02 10° N
CZ-4B R/B 2.5 03:20:22 10° SSW 03:23:18 26° W 03:26:14 10° NW
ARGOS Delta rocket 4.5 03:21:06 10° N 03:26:13 43° WNW 03:31:21 10° SW
Cosmos 2084 4.0 03:24:13 10° WSW 03:28:11 37° NW 03:32:14 10° NNE
OE (NEXTSAT) 4.4 03:28:13 10° WSW 03:31:39 63° NW 03:35:07 10° NE
Cosmos 2251 Rocket 4.3 03:28:57 10° SW 03:33:37 30° WNW 03:38:16 10° N
Cosmos 44 Rocket 4.0 03:31:15 10° NW 03:35:58 37° WSW 03:40:42 10° S
SKYMED 2 3.7 03:32:05 10° S 03:36:20 56° W 03:40:37 10° NNW
Cosmos 1980 Rocket 2.5 03:31:09 10° NNW 03:36:45 74° ENE 03:42:19 10° SSE
Cosmos 1400 Rocket 2.7 03:32:57 10° NNW 03:36:49 61° W 03:40:37 10° S
GOES 2 Rocket 4.4 03:30:58 10° WSW 03:37:02 70° S 03:45:14 10° E
H-2A R/B 2.8 03:34:18 10° NNE 03:38:39 76° ESE 03:42:48 10° S
ERS-2 4.1 03:41:44 10° WSW 03:42:48 11° W 03:43:52 10° WNW
Cosmos 614 Rocket 4.2 03:40:12 10° SW 03:45:10 47° WNW 03:50:08 10° N
Cosmos 2360 4.4 03:41:45 10° NNW 03:47:18 56° WSW 03:52:49 10° S
CZ-3 R/B 2.4 03:49:40 10° W 04:07:13 73° S 04:12:14 10° ESE
